Pickens County Airport, SC

2:29 PM EDT on May 24, 2017 (GMT -0400)
Pickens County

Weather History for KLQK - December, 2013

Change the Weather History Date:

Monday, December 9, 2013

  Actual Average Record
Temperature  
Mean Temperature 40 °F -  
Max Temperature 73 °F 55 °F 73 °F (2013)
Min Temperature 36 °F 36 °F 19 °F (2016)
Degree Days  
Heating Degree Days 25    
Moisture  
Dew Point 41 °F    
Average Humidity 100    
Maximum Humidity 100    
Minimum Humidity 100    
Precipitation  
Precipitation 0.00 in - - ()
Sea Level Pressure  
Sea Level Pressure 30.13 in    
Wind  
Wind Speed 1 mph (WSW)    
Max Wind Speed 4 mph    
Max Gust Speed -    
Visibility 5 miles    
Events Fog , Rain , Snow    
Averages and records for this station are not official NWS values.
T = Trace of Precipitation, MM = Missing Value Source: NWS Daily Summary

Daily Weather History Graph

Daily Weather History Graph

Search for Another Location

Airport or City:

Trip Planner

Search our weather history database for the weather conditions in past years. The results will help you decide how hot, cold, wet, or windy it might be!

Date:

Astronomy

Dec. 09, 2013 Rise Set
Actual Time 7:26 AM EST 5:19 PM EST
Civil Twilight 6:58 AM EST 5:47 PM EST
Nautical Twilight 6:27 AM EST 6:19 PM EST
Astronomical Twilight 5:56 AM EST 6:49 PM EST
Moon 12:33 PM EST (12/9) No Moon Set
Length of Visible Light 10h 48m
Length of Day
9h 52m
Waxing Crescent, 51% of the Moon is Illuminated
Dec 9
Waxing Crescent
Dec 17
Full
Dec 25
Last Quarter
Jan 1
New
Jan 7
First Quarter

Hourly Weather History & Observations

Time (EST) Temp. Windchill Dew Point Humidity Pressure Visibility Wind Dir Wind Speed Gust Speed Precip Events Conditions
12:15 AM 36.5 °F - 36.5 °F 100% 30.26 in 1.2 mi North - - N/A Snow Light Snow
12:35 AM 36.5 °F - 36.7 °F 100% 30.24 in 5.0 mi North - - N/A Rain Light Rain
12:55 AM 36.7 °F - 36.9 °F 100% 30.24 in 10.0 mi North - - N/A Rain Light Rain
1:15 AM 36.7 °F - 36.9 °F 100% 30.23 in 7.0 mi North - - N/A Rain Rain
1:35 AM 36.7 °F - 36.9 °F 100% 30.23 in 5.0 mi North - - N/A Rain Light Rain
1:55 AM 36.5 °F - 36.7 °F 100% 30.23 in 2.0 mi North - - N/A   Overcast
2:15 AM 36.5 °F - 36.5 °F 100% 30.21 in 7.0 mi North - - N/A Rain Light Rain
2:35 AM 36.5 °F - 36.5 °F 100% 30.20 in 3.0 mi North - - N/A Rain Rain
2:55 AM 36.5 °F - 36.5 °F 100% 30.18 in 7.0 mi North - - N/A Rain Light Rain
3:15 AM 36.5 °F - 36.7 °F 100% 30.18 in 10.0 mi North - - N/A Rain Rain
3:35 AM 36.5 °F - 36.7 °F 100% 30.18 in 10.0 mi North - - N/A   Overcast
3:55 AM 36.7 °F - 36.9 °F 100% 30.20 in 5.0 mi North - - N/A   Overcast
4:15 AM 36.9 °F - 36.9 °F 100% 30.20 in 2.5 mi North - - N/A Rain Rain
4:35 AM 36.7 °F - 36.9 °F 100% 30.17 in 1.8 mi North - - N/A Rain Light Rain
4:55 AM 36.7 °F - 36.9 °F 100% 30.18 in 3.0 mi North - - N/A Rain Rain
5:15 AM 36.7 °F - 36.9 °F 100% 30.16 in 4.0 mi North - - N/A Rain Light Rain
5:35 AM 36.7 °F - 36.9 °F 100% 30.15 in 4.0 mi North - - N/A Rain Rain
5:55 AM 36.9 °F - 37.0 °F 100% 30.14 in 5.0 mi North - - N/A Rain Light Rain
6:15 AM 37.0 °F - 37.4 °F 100% 30.14 in 10.0 mi North - - N/A Rain Light Rain
6:35 AM 37.0 °F - 37.2 °F 100% 30.15 in 10.0 mi North - - N/A   Overcast
6:55 AM 36.9 °F - 37.0 °F 100% 30.15 in 2.5 mi North - - N/A Rain Rain
7:15 AM 37.4 °F - 37.4 °F 100% 30.17 in 5.0 mi North - - N/A Rain Light Rain
7:35 AM 37.4 °F - 37.6 °F 100% 30.16 in 3.0 mi North - - N/A   Overcast
7:55 AM 37.6 °F - 37.8 °F 100% 30.16 in 3.0 mi North - - N/A   Overcast
8:15 AM 37.6 °F - 37.8 °F 100% 30.16 in 2.0 mi North - - N/A Rain Light Rain
8:35 AM 37.8 °F - 37.8 °F 100% 30.17 in 4.0 mi North - - N/A   Drizzle
8:55 AM 37.8 °F - 37.9 °F 100% 30.16 in 3.0 mi North - - N/A Rain Light Rain
9:15 AM - - - N/A% 30.18 in 3.0 mi North - - N/A Rain Rain
9:35 AM 38.3 °F - 38.5 °F 100% 30.16 in 7.0 mi North - - N/A Rain Light Rain
9:55 AM 38.8 °F - 39.2 °F 100% 30.17 in 10.0 mi North - - N/A Rain Light Rain
10:15 AM 39.2 °F - 39.2 °F 100% 30.16 in 4.0 mi North - - N/A Rain Light Rain
10:35 AM 39.4 °F - 39.6 °F 100% 30.17 in 2.5 mi North - - N/A   Light Drizzle
10:55 AM 39.4 °F - 39.6 °F 100% 30.16 in 7.0 mi North - - N/A Rain Rain
11:15 AM 39.4 °F - 39.6 °F 100% 30.16 in 10.0 mi North - - N/A Rain Light Rain
11:35 AM - - - N/A% 30.14 in 10.0 mi North - - N/A   Overcast
11:55 AM 40.1 °F - 40.3 °F 100% 30.14 in 7.0 mi Calm Calm - N/A Rain Rain
12:15 PM 40.5 °F - 40.6 °F 100% 30.13 in 10.0 mi Calm Calm - N/A   Overcast
12:35 PM 40.6 °F - 40.8 °F 100% 30.12 in 4.0 mi Calm Calm - N/A Rain Rain
12:55 PM 41.0 °F 39.0 °F 41.2 °F 100% 30.12 in 5.0 mi WNW 3.5 mph - N/A Rain Light Rain
1:15 PM 41.2 °F - 41.4 °F 100% 30.10 in 4.0 mi Calm Calm - N/A Rain Rain
1:35 PM 41.5 °F - 41.7 °F 100% 30.09 in 4.0 mi Calm Calm - N/A Rain Light Rain
1:55 PM 42.1 °F 40.2 °F 42.1 °F 100% 30.09 in 10.0 mi WSW 3.5 mph - N/A Rain Rain
2:15 PM 42.3 °F - 42.6 °F 100% 30.09 in 10.0 mi Calm Calm - N/A Rain Light Rain
2:35 PM 42.8 °F - 43.0 °F 100% 30.08 in 10.0 mi Calm Calm - N/A   Light Drizzle
2:55 PM 43.2 °F - 43.3 °F 100% 30.07 in 10.0 mi Calm Calm - N/A   Overcast
3:15 PM 43.7 °F - 43.7 °F 100% 30.08 in 10.0 mi Calm Calm - N/A   Overcast
3:35 PM 43.7 °F - 43.9 °F 100% 30.08 in 10.0 mi Calm Calm - N/A   Overcast
3:55 PM 43.7 °F - 43.9 °F 100% 30.08 in 10.0 mi Calm Calm - N/A   Overcast
4:15 PM 43.9 °F - 44.1 °F 100% 30.08 in 10.0 mi Calm Calm - N/A Rain Rain
4:35 PM 44.1 °F - 44.2 °F 100% 30.08 in 10.0 mi Calm Calm - N/A   Overcast
4:55 PM 44.1 °F 42.5 °F 44.2 °F 100% 30.08 in 10.0 mi SW 3.5 mph - N/A   Overcast
5:15 PM 44.1 °F - 44.2 °F 100% 30.09 in 10.0 mi Calm Calm - N/A   Overcast
5:35 PM 44.1 °F - 44.2 °F 100% 30.08 in 10.0 mi Calm Calm - N/A   Overcast
5:55 PM 44.1 °F - 44.2 °F 100% 30.08 in 10.0 mi Calm Calm - N/A   Overcast
6:15 PM 44.2 °F - 44.6 °F 100% 30.09 in 10.0 mi Calm Calm - N/A   Overcast
6:35 PM 44.1 °F - 44.2 °F 100% 30.09 in 7.0 mi Calm Calm - N/A   Overcast
6:55 PM 44.1 °F 42.5 °F 44.2 °F 100% 30.10 in 5.0 mi SSW 3.5 mph - N/A   Overcast
7:15 PM 44.2 °F - 44.4 °F 100% 30.10 in 1.2 mi Calm Calm - N/A   Overcast
7:35 PM 44.2 °F - 44.6 °F 100% 30.10 in 0.2 mi North - - N/A Fog Fog
7:55 PM 44.4 °F - 44.6 °F 100% 30.09 in 0.2 mi North - - N/A Fog Fog
8:15 PM 44.4 °F - 44.6 °F 100% 30.10 in 0.2 mi North - - N/A Fog Fog
8:35 PM 44.6 °F - 44.6 °F 100% 30.09 in 0.2 mi North - - N/A Fog Fog
8:55 PM 44.4 °F - 44.6 °F 100% 30.09 in 0.2 mi North - - N/A Fog Fog
9:15 PM 44.2 °F - 44.6 °F 100% 30.09 in 0.5 mi North - - N/A Fog Fog
9:35 PM 44.2 °F - 44.4 °F 100% 30.08 in 0.5 mi North - - N/A Fog Fog
9:55 PM 44.1 °F - 44.2 °F 100% 30.07 in 0.5 mi North - - N/A Fog Fog
10:15 PM 44.1 °F - 44.2 °F 100% 30.07 in 0.2 mi North - - N/A Fog Fog
10:35 PM 44.1 °F - 44.2 °F 100% 30.06 in 0.5 mi North - - N/A Fog Fog
10:55 PM 44.1 °F - 44.2 °F 100% 30.05 in 0.2 mi North - - N/A Fog Fog
11:15 PM 44.1 °F - 44.4 °F 100% 30.05 in 1.2 mi North - - N/A   Overcast
11:35 PM 44.2 °F - 44.6 °F 100% 30.04 in 5.0 mi North - - N/A   Overcast
11:55 PM 44.2 °F - 44.6 °F 100% 30.03 in 0.5 mi North - - N/A Fog Fog